Tracking 30970 objects as of 3-Jul-2025
HD Live streaming from Space Station
objects crossing your sky now

STARLINK-6036

Track STARLINK-6036 now!
10-day predictions
STARLINK-6036 is classified as:


NORAD ID: 56800
Int'l Code: 2023-078AK
Perigee: 576.7 km
Apogee: 581.7 km
Inclination: 70.0 °
Period: 96.1 minutes
Semi major axis: 6950 km
RCS: Unknown
Launch date: May 31, 2023
Source: United States (US)
Launch site: AIR FORCE WESTERN TEST RANGE (AFWTR)
Your satellite tracking list
Your tracking list is empty




NASA's NSSDC Master Catalog

Two Line Element Set (TLE):
1 56800U 23078AK  25183.90500783 -.00000585  00000-0 -41216-4 0  9998
2 56800  69.9985 254.2977 0003608 269.5383  90.5363 14.98323849115268
Source of the keplerian elements: AFSPC